Home   Weather   Kuujjuaq   Past weeks

Flag for Canada Past Weather in Kuujjuaq, Quebec, Canada — Yesterday and Last 2 Weeks

Now
1 °F

Passing clouds.


Feels Like: -10 °F
Forecast: 2 / 23 °F
Wind: 6 mph from Southwest

Location: Kuujjuaq

Current Time: Apr 27, 2017 at 3:26:37 am

Latest Report: Apr 27, 2017 at 3:00 am


Visibility: 15 mi

Pressure: 30.47 "Hg

Humidity: 78%

Dew Point: -4 °F

Location of KuujjuaqLocation

Past Weather in Kuujjuaq — Graph

°F

Kuujjuaq Temperature Yesterday

Maximum temperature yesterday: 14 °F (at 1:00 pm)
Minimum temperature yesterday: 5 °F (at 10:00 pm)
Average temperature yesterday: 9 °F

High & Low Weather Summary for the Past Weeks

 TemperatureHumidityPressure
High45 °F (Apr 22, 3:00 pm)100% (Apr 23, 2:00 am)30.54 "Hg (Apr 23, 2:00 am)
Low-13 °F (Apr 16, 5:00 am)35% (Apr 21, 6:00 pm)29.45 "Hg (Apr 23, 10:41 pm)
Average14 °F68%30.14 "Hg
* Reported Apr 12 2:00 am — Apr 27 2:00 am, Kuujjuaq, Weather by CustomWeather, © 2017

Note: Actual official high and low records may vary slightly from our data, if they occured in-between our weather recording intervals... More about our weather records

Advertising

Kuujjuaq Weather History for the Previous 24 Hours

Scroll right to see more
 ConditionsComfort  
Time TempWeatherWind HumidityBarometerVisibility
2:00 am
Thu, Apr 27
1 °FPassing clouds.7 mph85%30.46 "Hg15 mi
1:00 am3 °FPassing clouds.8 mph78%30.44 "Hg15 mi
12:00 am3 °FPassing clouds.6 mph78%30.44 "Hg15 mi
11:00 pm
Wed, Apr 26
5 °FPassing clouds.7 mph72%30.42 "Hg15 mi
10:00 pm5 °FPassing clouds.7 mph72%30.41 "Hg15 mi
9:00 pm7 °FPassing clouds.7 mph72%30.40 "Hg15 mi
8:00 pm9 °FPassing clouds.10 mph66%30.37 "Hg15 mi
7:00 pm10 °FScattered clouds.10 mph61%30.36 "Hg15 mi
6:00 pm12 °FScattered clouds.15 mph57%30.34 "Hg15 mi
5:00 pm12 °FScattered clouds.21 mph57%30.31 "Hg15 mi
4:00 pm12 °FScattered clouds.20 mph57%30.29 "Hg15 mi
3:52 pm14 °FScattered clouds.18 mph52%30.29 "Hg15 mi
3:00 pm14 °FLight snow. Partly sunny.16 mph57%30.28 "Hg15 mi
2:00 pm14 °FLight snow. Partly sunny.17 mph57%30.27 "Hg15 mi
1:00 pm14 °FLight snow. Overcast.15 mph52%30.26 "Hg15 mi
12:00 pm12 °FLight snow. Overcast.17 mph52%30.25 "Hg15 mi
11:00 am10 °FLight snow. Overcast.16 mph56%30.24 "Hg15 mi
10:00 am9 °FLight snow. Overcast.16 mph61%30.22 "Hg15 mi
9:00 am9 °FLight snow. Overcast.14 mph61%30.22 "Hg12 mi
8:00 am9 °FLight snow. Overcast.12 mph61%30.21 "Hg15 mi
7:00 am9 °FPartly sunny.9 mph66%30.20 "Hg12 mi
6:00 am7 °FLight snow. Partly sunny.9 mph66%30.19 "Hg15 mi
5:00 am7 °FSnow flurries. Partly sunny.9 mph66%30.19 "Hg15 mi
4:00 am7 °FSnow flurries. Passing clouds.6 mph66%30.20 "Hg15 mi
3:00 am7 °FSnow flurries. Passing clouds.9 mph66%30.20 "Hg15 mi
Weather by CustomWeather, © 2017

See weather overviewHow to use our weather pages